Fort Leonard Wood, MO

8:24 AM CDT on October 23, 2019 (GMT -0500)
Waynesville Regional At Forney Field

Weather History for KTBN - May, 2019

Change the Weather History Date:

Friday, May 3, 2019

  Actual Average Record
Temperature  
Mean Temperature 60 °F -  
Max Temperature 67 °F 71 °F 82 °F (2001)
Min Temperature 54 °F 53 °F 32 °F (2013)
Degree Days  
Heating Degree Days 5    
Growing Degree Days 10 (Base 50)    
Moisture  
Dew Point 57 °F    
Average Humidity 95    
Maximum Humidity 100    
Minimum Humidity 78    
Precipitation  
Precipitation 0.78 in - - ()
Sea Level Pressure  
Sea Level Pressure 29.98 in    
Wind  
Wind Speed 6 mph (NNE)    
Max Wind Speed 12 mph    
Max Gust Speed -    
Visibility 7 miles    
Events Fog , Rain , Thunderstorm    
Averages and records for this station are not official NWS values.
T = Trace of Precipitation, MM = Missing Value Source: NWS Daily Summary

Daily Weather History Graph

Daily Weather History Graph

Search for Another Location

Airport or City:

Astronomy

May. 03, 2019 Rise Set
Actual Time 6:10 AM CDT 8:00 PM CDT
Civil Twilight 5:42 AM CDT 8:29 PM CDT
Nautical Twilight 5:08 AM CDT 9:03 PM CDT
Astronomical Twilight 4:31 AM CDT 9:40 PM CDT
Moon 5:49 AM CDT (5/3) 6:51 PM CDT (5/3)
Length of Visible Light 14h 46m
Length of Day
13h 49m
Waning Crescent, 2% of the Moon is Illuminated
May 3
Waning Crescent
May 4
New
May 11
First Quarter
May 18
Full
May 26
Last Quarter

Hourly Weather History & Observations

Time (CDT) Temp. Dew Point Humidity Pressure Visibility Wind Dir Wind Speed Gust Speed Precip Events Conditions
12:56 AM 56.1 °F 55.6 °F 98% 30.06 in 10.0 mi NE 6.9 mph - N/A   Overcast
1:11 AM 55.4 °F 55.4 °F 100% 30.05 in 10.0 mi NE 4.6 mph - N/A   Overcast
1:56 AM 55.9 °F 55.4 °F 98% 30.04 in 10.0 mi NNE 6.9 mph - N/A   Overcast
2:01 AM 55.4 °F 55.4 °F 100% 30.04 in 10.0 mi NNE 5.8 mph - N/A   Overcast
2:56 AM 55.8 °F 55.2 °F 98% 30.01 in 10.0 mi NE 5.8 mph - N/A   Overcast
3:41 AM 55.4 °F 55.4 °F 100% 30.01 in 10.0 mi NNE 5.8 mph - N/A   Overcast
3:56 AM 55.8 °F 55.2 °F 98% 30.01 in 10.0 mi NNE 4.6 mph - N/A   Overcast
4:56 AM 55.4 °F 55.0 °F 99% 30.01 in 1.6 mi North 5.8 mph - N/A   Overcast
5:21 AM 55.4 °F 55.4 °F 100% 29.99 in 0.9 mi NNE 5.8 mph - N/A   Mist
5:26 AM 55.4 °F 55.4 °F 100% 29.99 in 1.0 mi NNE 4.6 mph - N/A   Mist
5:36 AM 55.4 °F 53.6 °F 94% 29.99 in 0.8 mi North 4.6 mph - N/A   Mist
5:56 AM 54.5 °F 54.1 °F 99% 30.01 in 0.5 mi NE 4.6 mph - N/A Fog Fog
6:01 AM 55.4 °F 53.6 °F 94% 30.01 in 0.8 mi NNE 4.6 mph - N/A   Mist
6:06 AM 55.4 °F 53.6 °F 94% 30.01 in 1.2 mi North 4.6 mph - N/A   Overcast
6:16 AM 55.4 °F 53.6 °F 94% 30.01 in 0.9 mi NNE 4.6 mph - N/A   Mist
6:21 AM 55.4 °F 53.6 °F 94% 30.01 in 1.0 mi NNE 4.6 mph - N/A   Mist
6:26 AM 55.4 °F 53.6 °F 94% 30.01 in 0.9 mi NNE 4.6 mph - N/A   Mist
6:56 AM 54.5 °F 54.1 °F 99% 30.03 in 0.9 mi NNE 4.6 mph - N/A   Mist
7:01 AM 55.4 °F 53.6 °F 94% 30.04 in 1.2 mi NNE 4.6 mph - N/A   Overcast
7:56 AM 54.9 °F 54.5 °F 99% 30.05 in 1.4 mi NE 3.5 mph - N/A   Overcast
8:21 AM 55.4 °F 55.4 °F 100% 30.05 in 2.0 mi Calm Calm - N/A   Overcast
8:41 AM 55.4 °F 55.4 °F 100% 30.04 in 3.0 mi ENE 4.6 mph - N/A   Overcast
8:56 AM 55.9 °F 55.6 °F 99% 30.04 in 4.0 mi ENE 5.8 mph - N/A   Overcast
9:30 AM 55.4 °F 55.4 °F 100% 30.04 in 9.0 mi Calm Calm - N/A   Light Drizzle
9:56 AM 56.3 °F 55.9 °F 99% 30.04 in 4.0 mi East 4.6 mph - 0.03 in Rain Light Rain
10:01 AM 57.2 °F 55.4 °F 94% 30.04 in 5.0 mi East 5.8 mph - N/A   Light Drizzle
10:06 AM 57.2 °F 55.4 °F 94% 30.04 in 8.0 mi East 5.8 mph - N/A   Overcast
10:26 AM 57.2 °F 57.2 °F 100% 30.01 in 10.0 mi East 8.1 mph - N/A   Overcast
10:56 AM 57.9 °F 57.6 °F 99% 30.02 in 10.0 mi East 5.8 mph - 0.00 in   Overcast
11:36 AM 59.0 °F 59.0 °F 100% 30.04 in 10.0 mi SE 4.6 mph - N/A   Overcast
11:56 AM 59.9 °F 59.0 °F 97% 30.02 in 10.0 mi SE 5.8 mph - N/A   Overcast
12:41 PM 60.8 °F 59.0 °F 94% 30.01 in 10.0 mi SE 3.5 mph - N/A   Overcast
12:56 PM 62.6 °F 58.6 °F 87% 30.00 in 10.0 mi ESE 5.8 mph - N/A   Overcast
1:46 PM 66.2 °F 59.0 °F 78% 29.99 in 10.0 mi ESE 4.6 mph - N/A   Overcast
1:56 PM 65.8 °F 58.8 °F 78% 29.99 in 10.0 mi Calm Calm - N/A   Mostly Cloudy
2:56 PM 66.7 °F 60.1 °F 79% 29.97 in 10.0 mi North 4.6 mph - N/A   Overcast
3:56 PM 64.9 °F 59.9 °F 84% 29.94 in 10.0 mi NNW 6.9 mph - N/A   Overcast
4:06 PM 64.4 °F 60.8 °F 88% 29.94 in 10.0 mi NNE 9.2 mph - N/A   Overcast
4:16 PM 64.4 °F 59.0 °F 83% 29.93 in 10.0 mi NNE 10.4 mph - N/A   Mostly Cloudy
4:29 PM 64.4 °F 59.0 °F 83% 29.92 in 10.0 mi NE 8.1 mph - N/A   Light Drizzle
4:41 PM 64.4 °F 59.0 °F 83% 29.93 in 10.0 mi East 4.6 mph - N/A   Overcast
4:56 PM 64.2 °F 59.5 °F 85% 29.93 in 10.0 mi NE 4.6 mph - 0.00 in   Overcast
5:06 PM 64.4 °F 60.8 °F 88% 29.94 in 10.0 mi North 4.6 mph - N/A   Overcast
5:29 PM 64.4 °F 60.8 °F 88% 29.93 in 10.0 mi North 4.6 mph - N/A Rain Light Rain
5:49 PM 62.6 °F 60.8 °F 94% 29.93 in 2.5 mi ENE 5.8 mph - N/A Rain Heavy Rain
5:54 PM 62.6 °F 60.8 °F 94% 29.93 in 6.0 mi North 4.6 mph - N/A Rain Light Rain
5:56 PM 63.0 °F 60.8 °F 93% 29.93 in 8.0 mi North 4.6 mph - 0.16 in Rain Light Rain
5:57 PM 62.6 °F 60.8 °F 94% 29.93 in 9.0 mi North 4.6 mph - N/A   Mostly Cloudy
6:32 PM 62.6 °F 60.8 °F 94% 29.94 in 10.0 mi North 4.6 mph - N/A   Mostly Cloudy
6:41 PM 62.6 °F 60.8 °F 94% 29.94 in 10.0 mi North 5.8 mph - N/A Rain Light Rain
6:46 PM 62.6 °F 60.8 °F 94% 29.94 in 10.0 mi North 5.8 mph - N/A Rain Light Rain
6:56 PM 62.2 °F 61.0 °F 96% 29.94 in 5.0 mi North 5.8 mph - 0.02 in Rain , Thunderstorm Rain
7:21 PM 60.8 °F 59.0 °F 94% 29.95 in 4.0 mi West 3.5 mph - N/A Rain , Thunderstorm Thunderstorms and Rain
7:26 PM 60.8 °F 59.0 °F 94% 29.97 in 2.5 mi West 6.9 mph - N/A Rain , Thunderstorm Heavy Thunderstorms and Rain
7:31 PM 60.8 °F 59.0 °F 94% 29.95 in 1.2 mi NNW 10.4 mph - N/A Rain , Thunderstorm Heavy Thunderstorms and Rain
7:36 PM 60.8 °F 59.0 °F 94% 29.95 in 2.0 mi NE 8.1 mph - N/A Rain , Thunderstorm Thunderstorms and Rain
7:46 PM 59.0 °F 59.0 °F 100% 29.96 in 1.8 mi NW 6.9 mph - N/A Rain , Thunderstorm Heavy Thunderstorms and Rain
7:51 PM 59.0 °F 59.0 °F 100% 29.95 in 1.5 mi NW 5.8 mph - N/A Rain , Thunderstorm Heavy Thunderstorms and Rain
7:52 PM 59.0 °F 59.0 °F 100% 29.95 in 1.5 mi NW 6.9 mph - N/A Rain Heavy Rain
7:56 PM 59.7 °F 58.8 °F 97% 29.96 in 2.0 mi WNW 5.8 mph - 0.39 in Rain Heavy Rain
8:01 PM 59.0 °F 59.0 °F 100% 29.96 in 2.5 mi NW 8.1 mph - N/A Rain Heavy Rain
8:06 PM 59.0 °F 59.0 °F 100% 29.95 in 3.0 mi NNW 8.1 mph - N/A Rain Heavy Rain
8:11 PM 59.0 °F 59.0 °F 100% 29.95 in 3.0 mi NW 9.2 mph - N/A Rain Heavy Rain
8:21 PM 59.0 °F 59.0 °F 100% 29.95 in 4.0 mi North 9.2 mph - N/A Rain Heavy Rain
8:46 PM 57.2 °F 57.2 °F 100% 29.94 in 10.0 mi NE 6.9 mph - N/A Rain Light Rain
8:56 PM 57.7 °F 57.2 °F 98% 29.94 in 10.0 mi ENE 6.9 mph - 0.17 in Rain Light Rain
9:06 PM 57.2 °F 57.2 °F 100% 29.94 in 10.0 mi East 8.1 mph - N/A   Mostly Cloudy
9:10 PM 57.2 °F 57.2 °F 100% 29.92 in 10.0 mi East 9.2 mph - N/A   Light Drizzle
9:27 PM 57.2 °F 57.2 °F 100% 29.94 in 10.0 mi NNE 4.6 mph - N/A   Mostly Cloudy
9:36 PM 57.2 °F 57.2 °F 100% 29.94 in 10.0 mi NW 8.1 mph - N/A   Light Drizzle
9:56 PM 56.8 °F 56.3 °F 98% 29.95 in 10.0 mi NNW 11.5 mph - 0.01 in   Light Drizzle
10:05 PM 57.2 °F 55.4 °F 94% 29.95 in 10.0 mi NNW 8.1 mph - N/A   Overcast
10:35 PM 55.4 °F 55.4 °F 100% 29.94 in 8.0 mi NE 8.1 mph - N/A   Scattered Clouds
10:55 PM 55.4 °F 55.4 °F 100% 29.94 in 10.0 mi NE 8.1 mph - N/A   Mostly Cloudy
10:56 PM 55.0 °F 54.5 °F 98% 29.94 in 10.0 mi NE 6.9 mph - 0.00 in   Mostly Cloudy
11:51 PM 55.4 °F 55.4 °F 100% 29.94 in 10.0 mi North 4.6 mph - N/A   Overcast
11:56 PM 55.2 °F 54.9 °F 99% 29.95 in 10.0 mi North 5.8 mph - N/A   Overcast